Date String (YYYY-MM-DD hh:mm:ss) UTC,Instrument flags,Ambient pressure (hPa),Sample flow (lpm),Bypass flow (lpm),Sample temperature (°C),Ambient temperature (°C),ASC tube jacket temperature (°C),LED temperature (°C),Box temperature (°C),Sample RH (%),Span deviation,Mass concentration (μg/m³),Mass concentration (μg/m³),Mass concentration (μg/m³)
DateTimeUTC,F1_M11,P_M11,Q1_M11,Q2_M11,T1_M11,T2_M11,T3_M11,T4_M11,T5_M11,U1_M11,ZSPAN_M11,X0_M11,X2_M11,X1_M11
2022-02-27 07:00:00,,0832.4,5.01,0.00,22.1,22.8,00.0,30.9,24.0,06.6,0004.6,0014.09,0008.86,0008.19
2022-02-27 07:01:00,,0832.4,4.98,0.00,22.1,22.5,00.0,31.0,24.0,06.6,0003.9,0014.00,0008.83,0008.18
2022-02-27 07:02:00,,0832.3,5.00,0.00,22.1,22.2,00.0,31.0,23.9,06.7,0003.1,0013.85,0008.83,0008.19
2022-02-27 07:03:00,,0832.4,5.01,0.00,22.0,21.9,00.0,31.0,23.8,06.7,0003.2,0013.65,0008.83,0008.19
2022-02-27 07:04:00,,0832.4,5.00,0.00,22.0,21.7,00.0,31.0,23.7,06.8,0003.5,0014.01,0008.85,0008.22
2022-02-27 07:05:00,,0832.4,4.99,0.00,22.0,21.6,00.0,31.0,23.6,06.8,0003.4,0014.17,0008.89,0008.25
2022-02-27 07:06:00,,0832.4,5.01,0.00,21.9,21.5,00.0,31.0,23.6,06.8,0002.5,0014.56,0008.94,0008.28
2022-02-27 07:07:00,,0832.4,5.01,0.00,21.9,21.4,00.0,31.0,23.5,06.8,0002.8,0014.48,0008.96,0008.32
2022-02-27 07:08:00,,0832.4,5.00,0.00,21.9,21.3,00.0,30.9,23.5,06.8,0003.2,0014.79,0009.04,0008.37
2022-02-27 07:09:00,,0832.4,4.99,0.00,21.8,21.2,00.0,30.9,23.4,06.7,0003.7,0015.28,0009.06,0008.36
2022-02-27 07:10:00,,0832.4,5.00,0.00,21.8,21.1,00.0,30.9,23.4,06.7,0003.7,0015.58,0009.00,0008.34
2022-02-27 07:11:00,,0832.3,5.00,0.00,21.7,21.1,00.0,30.9,23.3,06.9,0002.9,0015.96,0009.05,0008.38
2022-02-27 07:12:00,,0832.4,5.01,0.00,21.8,21.8,00.0,30.9,23.5,06.8,0003.6,0016.68,0009.15,0008.44
2022-02-27 07:13:00,,0832.3,5.00,0.00,22.0,22.5,00.0,31.0,23.8,06.8,0003.6,0016.53,0009.18,0008.44
2022-02-27 07:14:00,,0832.3,5.00,0.00,22.1,22.8,00.0,31.0,24.0,06.7,0003.5,0016.52,0009.17,0008.43
2022-02-27 07:15:00,,0832.3,4.99,0.00,22.1,22.4,00.0,31.0,24.0,06.7,0003.3,0016.58,0009.15,0008.40
2022-02-27 07:16:00,,0832.3,4.99,0.00,22.1,22.1,00.0,31.0,23.8,06.7,0002.8,0016.49,0009.15,0008.38
2022-02-27 07:17:00,,0832.2,5.00,0.00,22.0,21.9,00.0,31.0,23.7,06.7,0003.2,0016.16,0009.16,0008.39
2022-02-27 07:18:00,,0832.2,5.01,0.00,22.0,21.7,00.0,31.0,23.6,06.7,0003.0,0016.07,0009.23,0008.41
2022-02-27 07:19:00,,0832.1,5.00,0.00,21.9,21.5,00.0,31.0,23.5,06.8,0003.6,0015.85,0009.24,0008.43
2022-02-27 07:20:00,,0832.1,4.99,0.00,21.9,21.3,00.0,31.0,23.4,06.8,0003.5,0015.62,0009.35,0008.55
2022-02-27 07:21:00,,0832.1,5.00,0.00,21.8,21.2,00.0,30.9,23.3,06.8,0002.9,0015.45,0009.50,0008.70
2022-02-27 07:22:00,,0832.1,5.01,0.00,21.8,21.1,00.0,30.9,23.3,06.8,0002.9,0015.03,0009.59,0008.78
2022-02-27 07:23:00,,0832.1,5.01,0.00,21.7,21.0,00.0,30.9,23.3,06.9,0002.9,0014.81,0009.62,0008.84
2022-02-27 07:24:00,,0832.1,4.99,0.00,21.7,21.1,00.0,30.9,23.3,06.9,0003.4,0014.80,0009.69,0008.95
2022-02-27 07:25:00,,0832.1,4.99,0.00,21.8,21.8,00.0,30.9,23.5,06.9,0003.5,0015.21,0009.86,0009.07
2022-02-27 07:26:00,,0832.0,5.00,0.00,21.9,22.6,00.0,30.9,23.8,06.8,0003.5,0015.04,0009.97,0009.17
2022-02-27 07:27:00,,0832.0,4.99,0.00,22.1,23.1,00.0,31.0,24.0,06.7,0004.0,0014.83,0010.03,0009.23
2022-02-27 07:28:00,,0832.0,5.01,0.00,22.1,22.8,00.0,31.0,24.0,06.7,0004.0,0014.84,0010.04,0009.24
2022-02-27 07:29:00,,0832.0,4.99,0.00,22.1,22.4,00.0,31.0,23.9,06.7,0004.0,0014.83,0010.04,0009.24
2022-02-27 07:30:00,,0832.0,4.99,0.00,22.0,22.1,00.0,31.0,23.8,06.7,0003.3,0014.86,0010.05,0009.27
2022-02-27 07:31:00,,0832.0,5.02,0.00,22.0,21.8,00.0,31.0,23.6,06.7,0002.7,0015.10,0010.02,0009.24
2022-02-27 07:32:00,,0832.0,5.01,0.00,21.9,21.5,00.0,31.0,23.6,06.7,0003.0,0015.51,0009.97,0009.18
2022-02-27 07:33:00,,0832.0,4.98,0.00,21.9,21.3,00.0,31.0,23.5,06.7,0003.1,0015.49,0009.94,0009.15
2022-02-27 07:34:00,,0832.0,5.00,0.00,21.8,21.2,00.0,30.9,23.4,06.7,0002.8,0015.26,0009.91,0009.12
2022-02-27 07:35:00,,0832.0,5.00,0.00,21.8,21.1,00.0,30.9,23.3,06.8,0002.3,0015.39,0009.89,0009.06
2022-02-27 07:36:00,,0831.9,5.00,0.00,21.7,21.0,00.0,30.9,23.2,06.8,0002.0,0015.53,0009.80,0008.97
2022-02-27 07:37:00,,0831.9,5.00,0.00,21.7,20.9,00.0,30.9,23.2,06.8,0002.2,0015.65,0009.73,0008.91
2022-02-27 07:38:00,,0831.8,5.01,0.00,21.7,21.1,00.0,30.9,23.2,06.8,0002.0,0015.65,0009.71,0008.89
2022-02-27 07:39:00,,0831.8,5.00,0.00,21.8,21.9,00.0,30.9,23.5,06.7,0002.7,0015.77,0009.70,0008.88
2022-02-27 07:40:00,,0831.8,5.00,0.00,21.9,22.7,00.0,30.9,23.8,06.7,0002.8,0016.36,0009.67,0008.88
2022-02-27 07:41:00,,0831.8,4.99,0.00,22.0,22.7,00.0,30.9,23.9,06.6,0003.2,0016.27,0009.64,0008.86
2022-02-27 07:42:00,,0831.8,5.00,0.00,22.0,22.3,00.0,30.9,23.9,06.6,0003.4,0015.95,0009.61,0008.86
2022-02-27 07:43:00,,0831.8,5.01,0.00,22.0,22.0,00.0,31.0,23.8,06.6,0003.5,0015.49,0009.58,0008.84
2022-02-27 07:44:00,,0831.8,5.00,0.00,21.9,21.8,00.0,30.9,23.6,06.6,0003.7,0015.28,0009.50,0008.78
2022-02-27 07:45:00,,0831.8,5.01,0.00,21.9,21.6,00.0,30.9,23.5,06.6,0003.5,0015.08,0009.41,0008.69
2022-02-27 07:46:00,,0831.8,4.99,0.00,21.9,21.4,00.0,30.9,23.5,06.6,0003.3,0014.77,0009.32,0008.61
2022-02-27 07:47:00,,0831.8,5.01,0.00,21.8,21.2,00.0,30.9,23.4,06.6,0003.2,0014.49,0009.27,0008.58
2022-02-27 07:48:00,,0831.7,5.01,0.00,21.8,21.0,00.0,30.9,23.3,06.6,0003.2,0014.02,0009.17,0008.52
2022-02-27 07:49:00,,0831.7,5.00,0.00,21.7,20.9,00.0,30.9,23.3,06.6,0003.4,0013.80,0009.07,0008.43
2022-02-27 07:50:00,,0831.7,5.00,0.00,21.7,20.8,00.0,30.8,23.2,06.7,0003.1,0013.55,0009.00,0008.39
2022-02-27 07:51:00,,0831.7,5.01,0.00,21.7,21.2,00.0,30.8,23.3,06.7,0002.9,0013.24,0008.95,0008.35
2022-02-27 07:52:00,,0831.8,5.00,0.00,21.8,22.0,00.0,30.9,23.6,06.6,0003.0,0013.49,0008.84,0008.25
2022-02-27 07:53:00,,0831.9,4.99,0.00,22.0,22.7,00.0,30.9,23.9,06.5,0003.0,0013.34,0008.72,0008.12
2022-02-27 07:54:00,,0831.9,5.00,0.00,22.0,22.6,00.0,30.9,23.9,06.5,0003.0,0013.17,0008.66,0008.04
2022-02-27 07:55:00,,0831.9,4.99,0.00,22.0,22.3,00.0,30.9,23.8,06.5,0002.7,0013.25,0008.63,0008.02
2022-02-27 07:56:00,,0831.8,5.01,0.00,22.0,22.0,00.0,30.9,23.7,06.5,0002.8,0013.92,0008.59,0007.98
2022-02-27 07:57:00,,0831.8,5.00,0.00,21.9,21.7,00.0,30.9,23.6,06.6,0003.4,0014.37,0008.56,0007.97
2022-02-27 07:58:00,,0831.7,5.01,0.00,21.9,21.5,00.0,30.9,23.5,06.6,0004.2,0014.31,0008.56,0007.98
2022-02-27 07:59:00,,0831.7,4.99,0.00,21.8,21.4,00.0,30.9,23.4,06.6,0003.8,0014.78,0008.55,0007.96
